Time,TemperatureF,DewpointF,PressureIn,WindDirection,WindDirectionDegrees,WindSpeedMPH,WindSpeedGustMPH,Humidity,HourlyPrecipIn,Conditions,Clouds,dailyrainin,SoftwareType,DateUTC
2013-02-16 00:10:00,26.2,25.0,29.92,SSW,194,0.0,0.0,95,0.00,,,0.00,Wunderground v.1.15,2013-02-16 05:10:00,
2013-02-16 00:20:00,26.2,25.0,29.91,SSW,194,0.0,0.0,95,0.00,,,0.00,Wunderground v.1.15,2013-02-16 05:20:00,
2013-02-16 00:30:00,26.2,25.0,29.91,SSW,194,0.0,0.0,95,0.00,,,0.00,Wunderground v.1.15,2013-02-16 05:30:00,
2013-02-16 00:40:00,26.2,25.0,29.92,SSW,194,0.0,0.0,95,0.00,,,0.00,Wunderground v.1.15,2013-02-16 05:40:00,
2013-02-16 00:50:00,26.2,25.0,29.92,SSW,194,0.0,0.0,95,0.00,,,0.00,Wunderground v.1.15,2013-02-16 05:50:00,
2013-02-16 01:00:00,26.0,24.8,29.91,SSW,194,0.0,0.0,95,0.00,,,0.00,Wunderground v.1.15,2013-02-16 06:00:00,
2013-02-16 01:10:00,25.3,23.8,29.92,SSW,194,0.0,0.0,94,0.00,,,0.00,Wunderground v.1.15,2013-02-16 06:10:00,
2013-02-16 01:20:00,24.4,22.9,29.92,SSW,194,0.0,0.0,94,0.00,,,0.00,Wunderground v.1.15,2013-02-16 06:20:00,
2013-02-16 01:40:00,23.8,22.3,29.92,SSW,194,1.0,1.0,94,0.00,,,0.00,Wunderground v.1.15,2013-02-16 06:40:00,
2013-02-16 01:50:00,23.3,21.8,29.92,SSW,194,0.0,0.0,94,0.00,,,0.00,Wunderground v.1.15,2013-02-16 06:50:00,
2013-02-16 02:00:00,23.9,22.7,29.92,SSW,200,2.0,2.0,95,0.00,,,0.00,Wunderground v.1.15,2013-02-16 07:00:00,
2013-02-16 02:10:00,23.5,22.0,29.92,SSW,200,1.0,1.0,94,0.00,,,0.00,Wunderground v.1.15,2013-02-16 07:10:00,
2013-02-16 02:20:00,22.4,20.7,29.92,SSW,201,0.0,0.0,93,0.00,,,0.00,Wunderground v.1.15,2013-02-16 07:20:00,
2013-02-16 02:31:00,21.8,20.1,29.92,SSW,201,0.0,0.0,93,0.00,,,0.00,Wunderground v.1.15,2013-02-16 07:31:00,
2013-02-16 02:40:00,21.2,19.5,29.92,SSW,201,0.0,0.0,93,0.00,,,0.00,Wunderground v.1.15,2013-02-16 07:40:00,
2013-02-16 02:50:00,21.0,19.3,29.92,SSW,201,0.0,0.0,93,0.00,,,0.00,Wunderground v.1.15,2013-02-16 07:50:00,
2013-02-16 03:00:00,20.7,19.0,29.92,SSW,201,0.0,0.0,93,0.00,,,0.00,Wunderground v.1.15,2013-02-16 08:00:00,
2013-02-16 03:10:00,20.3,18.6,29.93,SSW,201,0.0,0.0,93,0.00,,,0.00,Wunderground v.1.15,2013-02-16 08:10:00,
2013-02-16 03:20:00,20.2,18.5,29.93,SSW,201,0.0,0.0,93,0.00,,,0.00,Wunderground v.1.15,2013-02-16 08:20:00,
2013-02-16 03:40:00,19.9,18.2,29.93,SSW,201,0.0,0.0,93,0.00,,,0.00,Wunderground v.1.15,2013-02-16 08:40:00,
2013-02-16 03:50:00,20.1,18.4,29.93,SSW,201,0.0,0.0,93,0.00,,,0.00,Wunderground v.1.15,2013-02-16 08:50:00,
2013-02-16 04:01:00,20.1,18.4,29.93,SSW,201,1.0,1.0,93,0.00,,,0.00,Wunderground v.1.15,2013-02-16 09:01:00,
2013-02-16 04:10:00,20.2,18.5,29.93,SSW,200,0.0,1.0,93,0.00,,,0.00,Wunderground v.1.15,2013-02-16 09:10:00,
2013-02-16 04:20:00,20.1,18.4,29.92,SSW,200,0.0,0.0,93,0.00,,,0.00,Wunderground v.1.15,2013-02-16 09:20:00,
2013-02-16 04:30:00,20.3,18.6,29.93,SSW,200,1.0,1.0,93,0.00,,,0.00,Wunderground v.1.15,2013-02-16 09:30:00,
2013-02-16 04:40:00,20.6,19.1,29.93,SSW,200,1.0,1.0,94,0.00,,,0.00,Wunderground v.1.15,2013-02-16 09:40:00,
2013-02-16 04:50:00,21.0,19.5,29.93,SSW,200,0.0,0.0,94,0.00,,,0.00,Wunderground v.1.15,2013-02-16 09:50:00,
2013-02-16 05:00:00,20.9,19.2,29.92,SSW,200,0.0,0.0,93,0.00,,,0.00,Wunderground v.1.15,2013-02-16 10:00:00,
2013-02-16 05:10:00,20.9,19.2,29.92,SSW,201,0.0,0.0,93,0.00,,,0.00,Wunderground v.1.15,2013-02-16 10:10:00,
2013-02-16 05:20:00,21.0,19.3,29.93,SSW,200,0.0,0.0,93,0.00,,,0.00,Wunderground v.1.15,2013-02-16 10:20:00,
2013-02-16 05:30:00,21.5,20.0,29.93,SSW,201,0.0,0.0,94,0.00,,,0.00,Wunderground v.1.15,2013-02-16 10:30:00,
2013-02-16 05:40:00,21.5,19.8,29.93,SSW,201,0.0,0.0,93,0.00,,,0.00,Wunderground v.1.15,2013-02-16 10:40:00,
2013-02-16 05:50:00,21.7,20.0,29.93,SSW,201,0.0,0.0,93,0.00,,,0.00,Wunderground v.1.15,2013-02-16 10:50:00,
2013-02-16 06:00:00,21.7,20.0,29.93,SSW,200,0.0,0.0,93,0.00,,,0.00,Wunderground v.1.15,2013-02-16 11:00:00,
2013-02-16 06:10:00,21.8,20.1,29.94,SSW,200,0.0,0.0,93,0.00,,,0.00,Wunderground v.1.15,2013-02-16 11:10:00,
2013-02-16 06:20:00,21.8,20.1,29.93,SSW,200,0.0,0.0,93,0.00,,,0.00,Wunderground v.1.15,2013-02-16 11:20:00,
2013-02-16 06:30:00,21.7,20.0,29.93,SSW,200,0.0,0.0,93,0.00,,,0.00,Wunderground v.1.15,2013-02-16 11:30:00,
2013-02-16 06:40:00,21.2,19.2,29.93,SSW,201,0.0,0.0,92,0.00,,,0.00,Wunderground v.1.15,2013-02-16 11:40:00,
2013-02-16 06:50:00,21.0,19.3,29.93,SSW,201,0.0,0.0,93,0.00,,,0.00,Wunderground v.1.15,2013-02-16 11:50:00,
2013-02-16 07:00:00,21.2,19.5,29.94,SSW,200,0.0,0.0,93,0.00,,,0.00,Wunderground v.1.15,2013-02-16 12:00:00,
2013-02-16 07:10:00,21.5,19.8,29.94,SSW,201,0.0,0.0,93,0.00,,,0.00,Wunderground v.1.15,2013-02-16 12:10:00,
2013-02-16 07:20:00,22.1,20.4,29.95,SSW,201,0.0,0.0,93,0.00,,,0.00,Wunderground v.1.15,2013-02-16 12:20:00,
2013-02-16 07:30:00,22.5,20.8,29.95,SSW,200,0.0,0.0,93,0.00,,,0.00,Wunderground v.1.15,2013-02-16 12:30:00,
2013-02-16 07:40:00,22.8,21.1,29.95,SSW,200,0.0,0.0,93,0.00,,,0.00,Wunderground v.1.15,2013-02-16 12:40:00,
2013-02-16 07:50:00,23.2,21.5,29.95,SSW,200,0.0,0.0,93,0.00,,,0.00,Wunderground v.1.15,2013-02-16 12:50:00,
2013-02-16 08:10:00,23.8,22.1,29.96,SSW,200,0.0,0.0,93,0.00,,,0.00,Wunderground v.1.15,2013-02-16 13:10:00,
2013-02-16 08:20:00,24.2,22.5,29.95,SSW,201,0.0,0.0,93,0.00,,,0.00,Wunderground v.1.15,2013-02-16 13:20:00,
2013-02-16 08:40:00,25.0,23.3,29.96,SSW,201,0.0,0.0,93,0.00,,,0.00,Wunderground v.1.15,2013-02-16 13:40:00,
2013-02-16 08:50:00,25.3,23.3,29.96,SSW,201,0.0,0.0,92,0.00,,,0.00,Wunderground v.1.15,2013-02-16 13:50:00,
2013-02-16 09:10:00,26.0,24.0,29.96,SSW,201,0.0,0.0,92,0.00,,,0.00,Wunderground v.1.15,2013-02-16 14:10:00,
2013-02-16 09:20:00,26.2,24.2,29.96,SSW,201,0.0,0.0,92,0.00,,,0.00,Wunderground v.1.15,2013-02-16 14:20:00,
2013-02-16 09:30:00,26.6,24.6,29.95,SW,236,0.0,0.0,92,0.00,,,0.00,Wunderground v.1.15,2013-02-16 14:30:00,
2013-02-16 09:40:00,27.3,25.3,29.95,SW,236,0.0,0.0,92,0.00,,,0.00,Wunderground v.1.15,2013-02-16 14:40:00,
2013-02-16 09:50:00,27.8,25.5,29.95,SSW,192,0.0,0.0,91,0.00,,,0.00,Wunderground v.1.15,2013-02-16 14:50:00,
2013-02-16 10:10:00,28.7,25.9,29.94,SW,222,0.0,0.0,89,0.00,,,0.01,Wunderground v.1.15,2013-02-16 15:10:00,
2013-02-16 10:20:00,28.5,25.1,29.94,SW,222,1.0,1.0,87,0.00,,,0.01,Wunderground v.1.15,2013-02-16 15:20:00,
2013-02-16 10:30:00,28.2,24.8,29.93,SW,222,0.0,2.0,87,0.00,,,0.01,Wunderground v.1.15,2013-02-16 15:30:00,
2013-02-16 10:40:00,28.1,23.9,29.93,SW,219,2.0,3.0,84,0.00,,,0.01,Wunderground v.1.15,2013-02-16 15:40:00,
2013-02-16 10:50:00,27.6,23.4,29.93,SW,229,4.0,4.0,84,0.00,,,0.01,Wunderground v.1.15,2013-02-16 15:50:00,
2013-02-16 11:01:00,27.7,22.9,29.92,SW,229,4.0,4.0,82,0.00,,,0.01,Wunderground v.1.15,2013-02-16 16:01:00,
2013-02-16 11:10:00,27.8,23.0,29.92,SW,227,5.0,6.0,82,0.00,,,0.01,Wunderground v.1.15,2013-02-16 16:10:00,
2013-02-16 11:20:00,28.2,22.8,29.92,SW,230,5.0,7.0,80,0.00,,,0.01,Wunderground v.1.15,2013-02-16 16:20:00,
2013-02-16 11:30:00,28.5,23.4,29.92,WSW,237,3.0,4.0,81,0.00,,,0.01,Wunderground v.1.15,2013-02-16 16:30:00,
2013-02-16 11:40:00,28.8,22.8,29.92,SW,225,4.0,4.0,78,0.00,,,0.01,Wunderground v.1.15,2013-02-16 16:40:00,
2013-02-16 11:50:00,29.0,22.7,29.91,SW,229,5.0,5.0,77,0.00,,,0.01,Wunderground v.1.15,2013-02-16 16:50:00,
2013-02-16 12:10:00,29.4,22.1,29.91,SW,235,2.0,3.0,74,0.00,,,0.01,Wunderground v.1.15,2013-02-16 17:10:00,
2013-02-16 12:20:00,29.5,21.9,29.91,SW,232,2.0,2.0,73,0.00,,,0.01,Wunderground v.1.15,2013-02-16 17:20:00,
2013-02-16 12:30:00,29.7,22.4,29.91,SW,232,1.0,1.0,74,0.00,,,0.01,Wunderground v.1.15,2013-02-16 17:30:00,
2013-02-16 12:40:00,30.0,22.1,29.91,West,276,1.0,1.0,72,0.00,,,0.01,Wunderground v.1.15,2013-02-16 17:40:00,
2013-02-16 12:50:00,30.2,22.3,29.91,West,275,1.0,1.0,72,0.00,,,0.01,Wunderground v.1.15,2013-02-16 17:50:00,
2013-02-16 13:00:00,30.1,22.5,29.90,West,273,1.0,1.0,73,0.00,,,0.01,Wunderground v.1.15,2013-02-16 18:00:00,
2013-02-16 13:10:00,30.8,21.8,29.90,WSW,238,2.0,2.0,69,0.00,,,0.01,Wunderground v.1.15,2013-02-16 18:10:00,
2013-02-16 13:20:00,30.1,21.5,29.90,SW,236,4.0,5.0,70,0.00,,,0.01,Wunderground v.1.15,2013-02-16 18:20:00,
2013-02-16 13:30:00,29.8,21.5,29.90,WSW,249,2.0,3.0,71,0.00,,,0.01,Wunderground v.1.15,2013-02-16 18:30:00,
2013-02-16 13:40:00,30.4,21.4,29.89,West,269,1.0,1.0,69,0.00,,,0.01,Wunderground v.1.15,2013-02-16 18:40:00,
2013-02-16 13:50:00,30.5,21.9,29.88,WSW,249,2.0,3.0,70,0.00,,,0.01,Wunderground v.1.15,2013-02-16 18:50:00,
2013-02-16 14:00:00,30.1,22.2,29.88,WSW,248,1.0,1.0,72,0.00,,,0.01,Wunderground v.1.15,2013-02-16 19:00:00,
2013-02-16 14:10:00,30.3,21.7,29.88,WSW,248,0.0,2.0,70,0.00,,,0.01,Wunderground v.1.15,2013-02-16 19:10:00,
2013-02-16 14:20:00,30.9,21.6,29.88,WSW,239,3.0,3.0,68,0.00,,,0.01,Wunderground v.1.15,2013-02-16 19:20:00,
2013-02-16 14:30:00,30.2,21.2,29.89,WSW,239,1.0,1.0,69,0.00,,,0.01,Wunderground v.1.15,2013-02-16 19:30:00,
2013-02-16 14:40:00,30.0,21.4,29.89,WSW,239,0.0,2.0,70,0.00,,,0.01,Wunderground v.1.15,2013-02-16 19:40:00,
2013-02-16 14:50:00,29.5,21.6,29.89,WSW,238,1.0,1.0,72,0.00,,,0.01,Wunderground v.1.15,2013-02-16 19:50:00,
2013-02-16 15:01:00,29.9,21.0,29.89,WSW,239,0.0,0.0,69,0.00,,,0.01,Wunderground v.1.15,2013-02-16 20:01:00,
2013-02-16 15:10:00,29.4,20.5,29.89,WSW,239,0.0,0.0,69,0.00,,,0.01,Wunderground v.1.15,2013-02-16 20:10:00,
2013-02-16 15:20:00,29.8,20.9,29.89,WSW,239,1.0,1.0,69,0.00,,,0.01,Wunderground v.1.15,2013-02-16 20:20:00,
2013-02-16 15:30:00,30.0,21.1,29.89,WSW,239,0.0,0.0,69,0.00,,,0.01,Wunderground v.1.15,2013-02-16 20:30:00,
2013-02-16 15:40:00,29.8,20.9,29.89,WSW,238,0.0,0.0,69,0.00,,,0.01,Wunderground v.1.15,2013-02-16 20:40:00,
2013-02-16 15:50:00,29.5,20.9,29.89,WSW,238,0.0,0.0,70,0.00,,,0.01,Wunderground v.1.15,2013-02-16 20:50:00,
2013-02-16 16:10:00,28.9,21.0,29.89,WSW,239,0.0,0.0,72,0.00,,,0.01,Wunderground v.1.15,2013-02-16 21:10:00,
2013-02-16 16:20:00,27.9,19.7,29.90,WSW,238,0.0,0.0,71,0.00,,,0.01,Wunderground v.1.15,2013-02-16 21:20:00,
2013-02-16 16:40:00,26.3,19.5,29.89,WSW,239,0.0,0.0,75,0.00,,,0.01,Wunderground v.1.15,2013-02-16 21:40:00,
2013-02-16 16:50:00,26.0,19.5,29.89,WSW,238,0.0,0.0,76,0.00,,,0.01,Wunderground v.1.15,2013-02-16 21:50:00,
2013-02-16 17:00:00,25.6,19.4,29.89,WSW,238,0.0,0.0,77,0.00,,,0.01,Wunderground v.1.15,2013-02-16 22:00:00,
2013-02-16 17:10:00,25.2,19.0,29.90,WSW,238,0.0,0.0,77,0.00,,,0.01,Wunderground v.1.15,2013-02-16 22:10:00,
2013-02-16 17:20:00,24.9,19.0,29.90,WSW,239,0.0,0.0,78,0.00,,,0.01,Wunderground v.1.15,2013-02-16 22:20:00,
2013-02-16 17:30:00,24.9,19.6,29.90,WSW,239,0.0,0.0,80,0.00,,,0.01,Wunderground v.1.15,2013-02-16 22:30:00,
2013-02-16 17:40:00,25.3,20.0,29.90,WSW,238,0.0,0.0,80,0.00,,,0.01,Wunderground v.1.15,2013-02-16 22:40:00,
2013-02-16 17:50:00,25.2,19.9,29.90,WSW,238,0.0,0.0,80,0.00,,,0.01,Wunderground v.1.15,2013-02-16 22:50:00,
2013-02-16 18:00:00,25.2,20.2,29.90,WSW,239,0.0,0.0,81,0.00,,,0.01,Wunderground v.1.15,2013-02-16 23:00:00,
2013-02-16 18:10:00,25.1,20.7,29.90,WSW,239,0.0,0.0,83,0.00,,,0.01,Wunderground v.1.15,2013-02-16 23:10:00,
2013-02-16 18:20:00,25.1,21.2,29.90,WSW,238,0.0,0.0,85,0.00,,,0.01,Wunderground v.1.15,2013-02-16 23:20:00,
2013-02-16 18:30:00,25.1,21.5,29.90,WSW,239,0.0,0.0,86,0.00,,,0.01,Wunderground v.1.15,2013-02-16 23:30:00,
2013-02-16 18:40:00,25.2,21.9,29.90,WSW,239,0.0,0.0,87,0.00,,,0.01,Wunderground v.1.15,2013-02-16 23:40:00,
2013-02-16 18:50:00,25.2,21.9,29.90,WSW,239,0.0,0.0,87,0.00,,,0.01,Wunderground v.1.15,2013-02-16 23:50:00,
2013-02-16 19:10:00,25.6,22.5,29.90,WSW,238,0.0,0.0,88,0.00,,,0.01,Wunderground v.1.15,2013-02-17 00:10:00,
2013-02-16 19:20:00,25.7,22.6,29.90,WSW,239,0.0,0.0,88,0.00,,,0.01,Wunderground v.1.15,2013-02-17 00:20:00,
2013-02-16 19:30:00,25.7,22.9,29.90,WSW,238,0.0,0.0,89,0.00,,,0.01,Wunderground v.1.15,2013-02-17 00:30:00,
2013-02-16 19:40:00,25.7,23.2,29.90,WSW,238,0.0,0.0,90,0.00,,,0.01,Wunderground v.1.15,2013-02-17 00:40:00,
2013-02-16 19:50:00,25.7,23.2,29.90,WSW,238,0.0,0.0,90,0.00,,,0.01,Wunderground v.1.15,2013-02-17 00:50:00,
2013-02-16 20:00:00,25.7,23.2,29.90,WSW,238,0.0,0.0,90,0.00,,,0.01,Wunderground v.1.15,2013-02-17 01:00:00,
2013-02-16 20:10:00,25.7,23.4,29.90,WSW,239,0.0,0.0,91,0.00,,,0.01,Wunderground v.1.15,2013-02-17 01:10:00,
2013-02-16 20:20:00,25.9,23.6,29.90,WSW,239,0.0,0.0,91,0.00,,,0.01,Wunderground v.1.15,2013-02-17 01:20:00,
2013-02-16 20:30:00,26.0,24.0,29.89,WSW,239,0.0,0.0,92,0.00,,,0.01,Wunderground v.1.15,2013-02-17 01:30:00,
2013-02-16 20:40:00,26.0,23.7,29.89,WSW,238,0.0,0.0,91,0.00,,,0.01,Wunderground v.1.15,2013-02-17 01:40:00,
2013-02-16 20:50:00,25.9,23.9,29.89,WSW,239,0.0,0.0,92,0.00,,,0.01,Wunderground v.1.15,2013-02-17 01:50:00,
2013-02-16 21:00:00,25.9,23.4,29.89,WNW,290,1.0,6.0,90,0.00,,,0.01,Wunderground v.1.15,2013-02-17 02:00:00,
2013-02-16 21:10:00,26.2,22.3,29.88,WNW,288,3.0,3.0,85,0.00,,,0.01,Wunderground v.1.15,2013-02-17 02:10:00,
2013-02-16 21:20:00,26.4,18.6,29.88,West,272,4.0,5.0,72,0.00,,,0.01,Wunderground v.1.15,2013-02-17 02:20:00,
2013-02-16 21:31:00,26.2,16.7,29.89,WNW,294,6.0,6.0,67,0.00,,,0.01,Wunderground v.1.15,2013-02-17 02:31:00,
2013-02-16 21:40:00,25.9,15.7,29.88,WNW,290,5.0,6.0,65,0.00,,,0.01,Wunderground v.1.15,2013-02-17 02:40:00,
2013-02-16 21:50:00,25.8,15.3,29.87,WNW,288,5.0,7.0,64,0.00,,,0.01,Wunderground v.1.15,2013-02-17 02:50:00,
2013-02-16 22:00:00,25.5,16.1,29.87,NW,305,6.0,6.0,67,0.00,,,0.01,Wunderground v.1.15,2013-02-17 03:00:00,
2013-02-16 22:10:00,25.3,16.5,29.88,NW,312,5.0,6.0,69,0.00,,,0.01,Wunderground v.1.15,2013-02-17 03:10:00,
2013-02-16 22:20:00,24.9,16.5,29.87,NW,309,7.0,7.0,70,0.00,,,0.01,Wunderground v.1.15,2013-02-17 03:20:00,
2013-02-16 22:30:00,24.1,16.4,29.87,NW,317,9.0,10.0,72,0.00,,,0.01,Wunderground v.1.15,2013-02-17 03:30:00,
2013-02-16 22:40:00,24.0,15.6,29.86,NNW,330,10.0,10.0,70,0.00,,,0.01,Wunderground v.1.15,2013-02-17 03:40:00,
2013-02-16 22:50:00,24.0,16.0,29.86,NNW,335,6.0,6.0,71,0.00,,,0.01,Wunderground v.1.15,2013-02-17 03:50:00,
2013-02-16 23:00:00,23.6,15.6,29.86,NNW,330,8.0,8.0,71,0.00,,,0.01,Wunderground v.1.15,2013-02-17 04:00:00,
2013-02-16 23:10:00,22.9,14.6,29.86,NNW,341,9.0,12.0,70,0.00,,,0.01,Wunderground v.1.15,2013-02-17 04:10:00,
2013-02-16 23:20:00,22.2,13.9,29.86,NW,316,10.0,10.0,70,0.00,,,0.01,Wunderground v.1.15,2013-02-17 04:20:00,
2013-02-16 23:40:00,21.1,13.8,29.86,NNW,335,12.0,12.0,73,0.00,,,0.01,Wunderground v.1.15,2013-02-17 04:40:00,
2013-02-16 23:50:00,20.7,13.7,29.86,NW,319,10.0,11.0,74,0.00,,,0.01,Wunderground v.1.15,2013-02-17 04:50:00,